Location: *
(32.8667°N, 13.1833°E)
Time: 22:19:14
(UTC+00:00)

MetOp-B - Pass Details

Date: 18 July 2019
Orbit: 819 x 822 km, 98.7° (Epoch: 21 August)

Event Time Altitude Azimuth Distance (km) Brightness Sun altitude
Exits shadow 20:30:51 37° 197° (SSW) 1,248 4.8 -23.6°
Maximum altitude 20:32:47 59° 259° (W) 942 4.5 -23.9°
Drops below altitude 10° 20:38:04 10° 339° (NNW) 2,423 7.5 -24.6°
Sets 20:40:28 0° 343° (NNW) 3,358 8.4 -24.9°
